Regional Weather Roundup
Issued by NWS

Home | Current Version | Previous Version | Graphics & Text | Print | Product List | Glossary On
Versions: 1 2 3 4 5 6 7 8 9 10 11 12 13 14 15 16 17 18 19 20 21 22 23 24 25 26 27 28 29 30 31 32 33 34 35 36 37 38 39 40 41 42 43 44 45 46 47 48 49 50
000
ASUS44 KMEG 031910
RWRTN
TENNESSEE HOURLY STATE WEATHER ROUNDUP
NATIONAL WEATHER SERVICE MEMPHIS TN
200 PM CDT MON AUG 03 2015

TNZ002-004-019-021-049-052-054-088>092-032000-
WEST TENNESSEE

CITY           SKY/WX    TMP DP  RH WIND       PRES   REMARKS
MEMPHIS INTL   MOSUNNY   97  67  37 NW7       29.93F HX 101
NWS MEMPHIS      N/A     94 N/A N/A MISG        N/A
JACKSON        SUNNY     95  68  41 NW8       29.93F HX  99
DYERSBURG        N/A    N/A N/A N/A MISG        N/A
PARIS          SUNNY     90  70  51 VRB3      29.94F HX  95
LEXINGTON      SUNNY     93  70  46 W6        29.93F HX  99
$$

TNZ008-025-027-028-033-062-065-066-032000-
NORTH MIDDLE TENNESSEE

CITY           SKY/WX    TMP DP  RH WIND       PRES   REMARKS
NASHVILLE      MOSUNNY   93  64  38 W3        29.93F HX  94
CLARKSVILLE    SUNNY     91  71  51 W9        29.92F HX  97
SMYRNA         MOSUNNY   96  68  40 VRB3      29.94F HX 100
CROSSVILLE     SUNNY     86  64  47 VRB5      30.02F
$$

TNZ061-075-076-078-094-096-097-032000-
SOUTH MIDDLE TENNESSEE

CITY           SKY/WX    TMP DP  RH WIND       PRES   REMARKS
FAYETTEVILLE     N/A     88  64  45 VRB7      29.97F
TULLAHOMA      SUNNY     90  64  43 N5        29.98F HX  91
WINCHESTER     SUNNY     90  66  45 NE7       29.97F HX  92
MCMINNVILLE    PTSUNNY   88  70  55 N6        29.97F HX  92
COLUMBIA       MOSUNNY   93  70  46 VRB7      29.94F HX  99
SHELBYVILLE    MOSUNNY   93  70  46 VRB7      29.96F HX  99
$$

TNZ017-018-042-046-047-032000-
NORTHEAST TENNESSEE

CITY           SKY/WX    TMP DP  RH WIND       PRES   REMARKS
TRI CITIES     MOSUNNY   88  56  33 MISG      29.98F
ELIZABETHTON   CLEAR     86  55  35 VRB5      29.98F
$$

TNZ012-013-036-069-073-074-032000-
CENTRAL EAST TENNESSEE

CITY           SKY/WX    TMP DP  RH WIND       PRES   REMARKS
KNOXVILLE      MOSUNNY   89  57  33 N6        29.95F
OAK RIDGE      SUNNY     90  60  36 CALM      29.97F
GATLINBURG       N/A     90  52  27 VRB6      29.95S
MORRISTOWN     CLEAR     88  64  45 S6        29.98F
$$

TNZ083-085-099-032000-
SOUTHEAST TENNESSEE

CITY           SKY/WX    TMP DP  RH WIND       PRES   REMARKS
CHATTANOOGA    MOSUNNY   92  56  29 N8        29.95F HX  90
$$

SKY/WX REPORTED AS FAIR MEANS FEW OR NO CLOUDS BELOW
12 THOUSAND FEET.



USA.gov is the U.S. government's official web portal to all federal, state and local government web resources and services.